Location: *
(51.4956°N, 0.1197°W)
Time: 12:17:36
(UTC+00:00)

Daily predictions for brighter satellites

Satellite Brightness Start Highest point End
(mag) Time Altitude Azimuth Time Altitude Azimuth Time Altitude Azimuth
Ariane Rocket 3.0 18:29:05 10° SSE 18:34:06 67° ENE 18:39:10 10° N
CZ-2D R/B 3.2 18:31:13 10° SSE 18:35:00 70° ENE 18:38:48 10° N
NOSS 3-3 (A) 4.0 18:32:49 10° SW 18:38:50 81° SE 18:45:40 10° NE
NOSS 3-3 (C) 4.0 18:32:55 10° SW 18:38:57 81° SE 18:45:46 10° NE
Cosmos 2227 Rocket 3.5 18:36:46 10° SE 18:40:18 17° E 18:43:52 10° ENE
Cosmos 2327 Rocket 4.5 18:34:46 10° N 18:41:04 76° E 18:47:12 10° SSE
ARGOS 4.2 18:36:42 10° ESE 18:41:10 27° ENE 18:45:39 10° N
Cosmos 407 Rocket 3.8 18:36:44 10° NNW 18:41:44 49° ENE 18:46:43 10° SE
Nadezhda 1 Rocket 4.0 18:37:00 10° SSE 18:42:53 56° E 18:48:50 10° NNE
Cosmos 2219 4.0 18:38:02 10° SSE 18:42:54 29° ESE 18:47:47 10° NE
HJ-1C 3.5 18:39:55 10° SSE 18:43:12 53° ENE 18:46:33 10° N
ADEOS Rocket 4.4 18:38:15 10° NE 18:44:03 24° E 18:50:04 10° SE
GEOS 3 Rocket 3.6 18:39:08 10° SE 18:44:16 86° NE 18:49:26 10° NW
Cosmos 1939 Rocket 2.7 18:41:00 10° SSE 18:44:51 77° ENE 18:48:44 10° N
USA 186 2.9 18:42:13 10° SE 18:45:11 28° ENE 18:48:10 10° N
Meteor 2-9 Rocket 4.2 18:39:38 10° S 18:45:22 80° E 18:50:59 10° NNE
Okean 1-7 Rocket 4.4 18:41:51 10° N 18:45:51 32° ENE 18:49:51 10° SE
COSMO-SKYMED 1 3.5 18:45:09 10° N 18:49:25 55° WNW 18:53:39 10° SSW
Cosmos 1842 4.2 18:46:12 10° NNW 18:50:05 52° W 18:53:56 10° S
Cosmos 2297 Rocket 3.3 18:46:31 10° SSE 18:50:41 22° E 18:54:52 10° NE
Cosmos 1300 Rocket 3.9 18:46:33 10° SSW 18:50:50 70° WNW 18:55:10 10° N
USA 234 3.6 18:46:40 10° ENE 18:53:12 71° NNW 18:59:44 10° WSW
Meteor 1-4 Rocket 3.2 18:56:03 10° N 18:59:21 34° ENE 19:02:35 10° SE
Timation 2 Rocket 4.1 18:53:35 10° SSW 19:00:08 89° WNW 19:06:28 10° NNE
Cosmos 2151 Rocket 4.4 18:58:01 10° SSW 19:02:20 56° WNW 19:06:42 10° N
Cosmos 405 Rocket 3.7 19:00:15 10° SSE 19:03:16 24° E 19:06:19 10° NE
Cosmos 1140 Rocket 3.7 18:58:21 10° NNW 19:03:26 50° ENE 19:08:25 10° SE
Cosmos 1437 Rocket 4.0 19:00:32 10° NNE 19:03:37 22° ENE 19:05:42 15° ESE
GENESIS II 4.4 19:03:55 10° NW 19:08:01 65° NE 19:11:21 15° SE
Meteor 1-12 Rocket 4.3 19:02:33 10° SSW 19:08:16 87° WNW 19:13:58 10° NNE
ASTEX 1 3.5 19:03:59 10° NNE 19:08:47 54° E 19:13:34 10° S
CZ-2C R/B 4.1 19:04:56 13° ESE 19:08:59 30° ENE 19:13:46 10° N
ATLAS 2AS CENTAUR R/B 3.7 19:03:18 10° NW 19:10:43 52° WSW 19:17:33 10° SSE
In-Cosmos 22 4.2 19:05:54 10° N 19:11:12 60° ENE 19:16:36 10° SSE
Cosmos 2333 Rocket 3.4 19:07:53 10° NW 19:13:16 44° WSW 19:18:38 10° S
EO 1 Delta rocket 4.3 19:08:32 10° SSE 19:14:58 75° ENE 19:20:08 10° N
Cosmos 1455 Rocket 3.9 19:11:46 10° SSE 19:15:36 30° E 19:19:29 10° NNE
Meteor 1-24 Rocket 4.4 19:11:27 10° N 19:16:47 37° ENE 19:21:13 15° SE
SPOT 3 Rocket 3.6 19:11:58 10° SSE 19:17:03 63° ENE 19:22:10 10° N
Cosmos 2237 Rocket 2.2 19:12:27 10° NNW 19:18:12 88° WSW 19:23:55 10° SSE
Cosmos 1441 Rocket 3.4 19:14:41 10° SSW 19:18:28 72° WNW 19:22:16 10° N
Cosmos 1674 3.6 19:17:55 10° N 19:21:13 28° ENE 19:22:42 22° ESE
ERBS 2.4 19:18:21 10° WNW 19:21:45 63° NNE 19:23:37 24° E
SJ-11-01 4.3 19:19:01 10° SSE 19:23:47 87° ENE 19:28:34 10° NNW
Cosmos 2341 Rocket 4.0 19:20:01 10° N 19:26:19 82° E 19:32:31 10° SSE
ISS -2.2 19:24:02 10° SSW 19:26:21 19° SSE 19:26:21 19° SSE
FAST 4.3 19:23:41 10° S 19:26:33 62° E 19:29:10 10° NNE
Cosmos 1371 Rocket 4.1 19:22:29 10° S 19:27:39 54° ESE 19:32:52 10° NNE
Cosmos 1980 3.9 19:22:11 10° NNW 19:27:50 73° WSW 19:33:26 10° SSE
RESURS DK-1 3.7 19:25:39 10° NNW 19:29:09 25° NE 19:30:49 20° E
Cosmos 2181 Rocket 4.1 19:24:07 10° SSE 19:30:08 53° E 19:36:18 10° NNE
Cosmos 1805 4.3 19:30:39 24° ESE 19:31:10 25° E 19:34:25 10° NNE
Cosmos 1626 Rocket 4.3 19:27:48 10° N 19:31:43 32° ENE 19:33:19 24° ESE
CZ-2C R/B 3.5 19:29:56 10° NNE 19:34:25 67° ESE 19:38:49 10° S
Cosmos 676 Rocket 4.0 19:32:00 10° NNW 19:37:18 74° ENE 19:41:12 18° SSE
Okean 1 Rocket 3.9 19:34:33 10° SSW 19:38:48 53° WNW 19:43:07 10° N
FREGAT/IRIS 4.1 19:38:30 10° SSW 19:41:07 35° W 19:43:45 10° NNW
Cosmos 1707 4.0 19:37:55 10° NNW 19:41:40 43° W 19:45:23 10° SSW
Meteor 2-17 Rocket 4.4 19:36:51 10° N 19:42:59 88° E 19:49:03 10° S
Cosmos 2218 Rocket 4.0 19:36:40 10° N 19:43:04 69° ENE 19:49:01 12° SSE
Meteor 2-5 Rocket 3.8 19:37:33 10° N 19:43:23 73° ENE 19:48:44 13° SSE
Cosmos 2366 rocket 4.0 19:38:41 10° N 19:45:03 67° ENE 19:50:40 14° SSE
Resurs 1-3 3.6 19:42:46 23° SE 19:45:21 60° ENE 19:49:42 10° N
H-2A R/B 1.9 19:42:42 13° SSE 19:47:05 82° ENE 19:52:11 10° NNW
Cosmos 864 Rocket 4.5 19:41:03 10° N 19:47:15 66° ENE 19:52:29 15° SSE
KORONAS-FOTON 4.0 19:44:39 10° N 19:48:22 48° ENE 19:49:22 37° ESE
SL-16 R/B 2.2 19:44:01 10° NNW 19:49:43 70° ENE 19:52:58 26° SE
Cosmos 2219 Rocket 4.4 19:47:05 10° NW 19:51:27 24° WSW 19:55:48 10° SSW
Cosmos 1602 Rocket 4.0 19:48:48 10° N 19:52:56 40° ENE 19:53:55 35° ESE
SL-8 Rocket 4.0 19:48:23 10° N 19:54:38 88° W 20:00:48 10° S
Terra 3.9 19:54:27 12° ENE 19:54:57 13° NE 19:56:56 10° NNE
Resurs 01 Rocket 1.7 19:53:03 31° SE 19:54:58 58° ENE 19:59:22 10° N
CZ-4C R/B 4.1 19:53:41 10° NW 19:59:02 29° N 20:05:12 10° ENE
CZ-2C R/B 3.9 19:55:18 10° NE 19:58:58 23° ENE 19:58:58 23° ENE
SJ-6B 3.8 19:57:29 10° S 20:01:28 49° W 20:05:27 10° NNW
Cosmos 389 Rocket 4.3 20:00:34 10° NNW 20:03:36 29° W 20:06:37 10° SSW
SL-08 RB Rocket 3.7 20:01:13 27° SSE 20:03:47 82° ENE 20:08:29 10° NNW
SL-14 R/B 4.1 20:02:00 10° N 20:05:29 34° ENE 20:05:29 34° ENE
Cosmos 2082 3.9 20:01:53 10° S 20:07:21 48° ESE 20:12:50 10° NE
Cosmos 1959 Rocket 4.4 20:01:41 10° N 20:07:50 86° W 20:13:13 14° S
SL-8 R/B 3.8 20:03:14 10° W 20:07:58 61° S 20:09:16 44° SE
Cosmos 1850 Rocket 4.1 20:04:41 10° NNW 20:09:50 59° ENE 20:11:25 41° ESE
Cosmos 1626 3.4 20:09:14 10° N 20:11:44 28° NE 20:11:44 28° NE
MetOp-B 4.3 20:12:35 39° ESE 20:14:12 54° ENE 20:19:25 10° N
USA 186 4.1 20:13:14 10° SSW 20:16:06 25° W 20:19:00 10° NW
Cosmos 1766 3.1 20:15:15 50° S 20:16:11 78° E 20:20:07 10° NNE
ARGOS 3.6 20:16:39 15° S 20:21:06 59° W 20:26:27 10° NNW
Cosmos 2227 Rocket 2.1 20:17:53 10° SSW 20:23:34 88° ESE 20:29:17 10° NNE
Lacrosse 5 rocket 2.7 20:20:15 10° SW 20:21:44 22° SSW 20:21:44 22° SSW
Cosmos 2056 Rocket 3.9 20:21:03 10° SW 20:26:27 68° WNW 20:31:52 10° NNE
Cosmos 2219 3.8 20:21:03 10° SW 20:26:44 60° NW 20:32:26 10° NNE
ADEOS Rocket 3.5 20:22:58 10° NNE 20:30:18 88° WNW 20:38:05 10° SSW
Cosmos 1420 Rocket 3.9 20:26:11 10° SSW 20:31:27 70° ESE 20:36:46 10° NNE
BREEZE M DEB (TANK) 2.5 20:30:53 10° W 20:33:28 63° SSW 20:33:28 63° SSW
Cosmos 2297 Rocket 2.3 20:28:28 10° SW 20:34:08 77° WNW 20:39:50 10° NNE
USA 234 3.8 20:31:34 21° ENE 20:35:52 56° N 20:42:15 10° WNW
MetOp-A 4.5 20:36:53 29° S 20:39:35 62° WSW 20:44:55 10° NNW
Cosmos 1437 Rocket 4.1 20:36:29 10° NNW 20:40:00 36° W 20:41:07 29° SW
Cosmos 1741 Rocket 3.9 20:34:43 10° NNW 20:40:06 88° WSW 20:41:12 58° SSE
ERS-1 Rocket 3.4 20:40:43 44° ENE 20:40:43 44° ENE 20:45:27 10° N
Meteor 2-12 Rocket 4.4 20:37:08 10° N 20:43:15 70° ENE 20:44:34 54° SE
SPOT 1/Viking Rocket 3.8 20:46:26 51° ENE 20:46:28 51° ENE 20:51:28 10° N
CZ-2C R/B 3.7 20:46:00 29° SSW 20:48:33 54° W 20:54:02 10° NNW
Spot 2 Rocket 3.5 20:49:00 59° S 20:49:55 78° WSW 20:54:59 10° NNW
DMSP B5D2-2 3.9 20:45:11 10° NNE 20:50:31 81° ESE 20:51:28 61° S
Cosmos 1943 3.4 20:45:51 10° NNW 20:51:26 52° NE 20:51:54 51° ENE
Meteor 1-21 Rocket 4.2 20:46:52 10° N 20:52:45 66° ENE 20:53:21 62° ESE
Cosmos 2084 Rocket 3.7 20:49:23 10° SW 20:53:50 71° NW 20:54:17 65° N
Cosmos 1934 Rocket 4.0 20:48:19 10° N 20:54:22 58° ENE 20:54:50 56° E
Landsat 7 4.1 21:00:49 59° NNE 21:00:49 59° NNE 21:04:58 10° N
Cosmos 1953 Rocket 4.5 20:56:35 10° N 20:59:47 40° NNE 20:59:47 40° NNE
SPOT 5 3.4 21:07:32 50° NNE 21:07:32 50° NNE 21:11:42 10° N
RESURS DK-1 3.3 21:03:24 10° NW 21:06:43 45° WNW 21:06:43 45° WNW
USA 245 4.3 21:07:50 64° S 21:08:50 82° WSW 21:14:28 10° NNW
Cosmos 1825 Rocket 4.4 21:12:25 10° NNW 21:15:38 48° NNW 21:15:38 48° NNW
Cosmos 1452 Rocket 3.9 21:19:02 39° SW 21:20:49 62° WNW 21:26:03 10° NNE
Cosmos 2285 Rocket 4.5 21:18:11 10° NNW 21:24:25 47° NE 21:24:29 47° ENE
Nadezhda 3 Rocket 4.0 21:23:40 55° SW 21:25:01 74° WNW 21:31:16 10° N
H-2A R/B 4.5 21:24:08 10° SW 21:27:13 16° W 21:30:21 10° NW
Cosmos 1603 3.8 21:23:32 10° NNW 21:28:57 72° W 21:28:57 72° W
Terra 2.8 21:33:21 41° N 21:33:21 41° N 21:36:34 10° N
Resurs 01 Rocket 3.8 21:30:38 18° WSW 21:31:50 19° W 21:35:04 10° NW
SL-16 R/B 3.9 21:28:53 10° NW 21:33:19 24° WSW 21:34:52 21° SW
Cosmos 1605 Rocket 4.0 21:29:38 10° N 21:35:46 75° NE 21:35:46 75° NE
CZ-2C R/B 2.9 21:34:57 10° N 21:40:29 68° WNW 21:40:29 68° WNW
CZ-4C R/B 3.5 21:42:50 10° NW 21:49:12 45° NNE 21:50:38 41° ENE
Cosmos 2082 Rocket 4.5 22:00:22 10° N 22:03:43 15° NNE 22:05:33 14° NE
Cosmos 2227 Rocket 4.3 22:03:45 10° W 22:08:22 25° NW 22:13:02 10° NNE
USA 234 3.3 22:18:54 72° N 22:18:54 72° N 22:25:06 10° WNW
Cosmos 2297 Rocket 4.5 22:14:49 10° W 22:19:08 22° NW 22:23:29 10° NNE
Cosmos 2263 Rocket 3.7 22:33:29 29° NNE 22:33:29 29° NNE 22:36:10 10° NNE
Cosmos 1833 Rocket 4.4 22:37:28 10° NNW 22:41:33 25° NNE 22:41:33 25° NNE
Terra 4.4 23:12:14 15° WNW 23:12:14 15° WNW 23:13:28 10° NW
ATLAS CENTAUR R/B 4.5 23:31:39 14° NNE 23:31:39 14° NNE 23:32:25 10° NNE
CZ-4C R/B 3.6 23:31:20 10° NW 23:35:47 45° NW 23:35:47 45° NW
SL-16 R/B 4.4 23:39:41 19° ENE 23:40:43 20° NE 23:45:04 10° N
Mayak 1.9 23:39:04 10° N 23:39:31 13° N 23:39:31 13° N
SJ 16-02 4.3 23:43:39 10° N 23:44:36 14° NNE 23:44:36 14° NNE
Cosmos 2082 Rocket 3.8 23:43:55 10° NNW 23:47:22 32° N 23:47:22 32° N
